Year,Month,Day,Hour,Minute,Value (Times are PST for temperature in C)
2014,08,27,00,00,17.90
2014,08,27,00,01,17.90
2014,08,27,00,02,17.90
2014,08,27,00,03,17.90
2014,08,27,00,04,17.80
2014,08,27,00,05,17.80
2014,08,27,00,06,17.80
2014,08,27,00,07,17.80
2014,08,27,00,08,17.80
2014,08,27,00,09,17.80
2014,08,27,00,10,17.80
2014,08,27,00,11,17.80
2014,08,27,00,12,17.70
2014,08,27,00,13,17.70
2014,08,27,00,14,17.70
2014,08,27,00,15,17.70
2014,08,27,00,16,17.70
2014,08,27,00,17,17.70
2014,08,27,00,18,17.70
2014,08,27,00,19,17.70
2014,08,27,00,20,17.70
2014,08,27,00,21,17.70
2014,08,27,00,22,17.70
2014,08,27,00,23,17.70
2014,08,27,00,24,17.70
2014,08,27,00,25,17.80
2014,08,27,00,26,17.80
2014,08,27,00,27,17.80
2014,08,27,00,28,17.80
2014,08,27,00,29,17.80
2014,08,27,00,30,17.90
2014,08,27,00,31,17.90
2014,08,27,00,32,17.90
2014,08,27,00,33,17.90
2014,08,27,00,34,17.90
2014,08,27,00,35,17.90
2014,08,27,00,36,18.00
2014,08,27,00,37,18.00
2014,08,27,00,38,18.10
2014,08,27,00,39,18.10
2014,08,27,00,40,18.10
2014,08,27,00,41,18.10
2014,08,27,00,42,18.10
2014,08,27,00,43,18.10
2014,08,27,00,44,18.10
2014,08,27,00,45,18.10
2014,08,27,00,46,18.10
2014,08,27,00,47,18.10
2014,08,27,00,48,18.10
2014,08,27,00,49,18.00
2014,08,27,00,50,18.00
2014,08,27,00,51,18.00
2014,08,27,00,52,18.00
2014,08,27,00,53,18.00
2014,08,27,00,54,17.90
2014,08,27,00,55,17.90
2014,08,27,00,56,17.90
2014,08,27,00,57,17.90
2014,08,27,00,58,17.90
2014,08,27,00,59,17.90
2014,08,27,01,00,17.90
2014,08,27,01,01,17.90
2014,08,27,01,02,17.90
2014,08,27,01,03,17.90
2014,08,27,01,04,17.90
2014,08,27,01,05,17.90
2014,08,27,01,06,17.90
2014,08,27,01,07,17.90
2014,08,27,01,08,17.80
2014,08,27,01,09,17.80
2014,08,27,01,10,17.80
2014,08,27,01,11,17.80
2014,08,27,01,12,17.80
2014,08,27,01,13,17.80
2014,08,27,01,14,17.80
2014,08,27,01,15,17.80
2014,08,27,01,16,17.80
2014,08,27,01,17,17.80
2014,08,27,01,18,17.80
2014,08,27,01,19,17.80
2014,08,27,01,20,17.80
2014,08,27,01,21,17.80
2014,08,27,01,22,17.80
2014,08,27,01,23,17.80
2014,08,27,01,24,17.80
2014,08,27,01,25,17.70
2014,08,27,01,26,17.70
2014,08,27,01,27,17.70
2014,08,27,01,28,17.70
2014,08,27,01,29,17.70
2014,08,27,01,30,17.70
2014,08,27,01,31,17.70
2014,08,27,01,32,17.70
2014,08,27,01,33,17.70
2014,08,27,01,34,17.70
2014,08,27,01,35,17.60
2014,08,27,01,36,17.60
2014,08,27,01,37,17.60
2014,08,27,01,38,17.60
2014,08,27,01,39,17.60
2014,08,27,01,40,17.50
2014,08,27,01,41,17.60
2014,08,27,01,42,17.50
2014,08,27,01,43,17.50
2014,08,27,01,44,17.50
2014,08,27,01,45,17.50
2014,08,27,01,46,17.50
2014,08,27,01,47,17.50
2014,08,27,01,48,17.50
2014,08,27,01,49,17.50
2014,08,27,01,50,17.50
2014,08,27,01,51,17.50
2014,08,27,01,52,17.50
2014,08,27,01,53,17.50
2014,08,27,01,54,17.50
2014,08,27,01,55,17.50
2014,08,27,01,56,17.50
2014,08,27,01,57,17.50
2014,08,27,01,58,17.50
2014,08,27,01,59,17.40
2014,08,27,02,00,17.40
2014,08,27,02,01,17.40
2014,08,27,02,02,17.40
2014,08,27,02,03,17.40
2014,08,27,02,04,17.40
2014,08,27,02,05,17.40
2014,08,27,02,06,17.30
2014,08,27,02,07,17.30
2014,08,27,02,08,17.30
2014,08,27,02,09,17.30
2014,08,27,02,10,17.30
2014,08,27,02,11,17.30
2014,08,27,02,12,17.30
2014,08,27,02,13,17.20
2014,08,27,02,14,17.20
2014,08,27,02,15,17.20
2014,08,27,02,16,17.20
2014,08,27,02,17,17.20
2014,08,27,02,18,17.20
2014,08,27,02,19,17.20
2014,08,27,02,20,17.20
2014,08,27,02,21,17.20
2014,08,27,02,22,17.20
2014,08,27,02,23,17.20
2014,08,27,02,24,17.20
2014,08,27,02,25,17.20
2014,08,27,02,26,17.20
2014,08,27,02,27,17.20
2014,08,27,02,28,17.20
2014,08,27,02,29,17.20
2014,08,27,02,30,17.20
2014,08,27,02,31,17.20
2014,08,27,02,32,17.20
2014,08,27,02,33,17.10
2014,08,27,02,34,17.10
2014,08,27,02,35,17.10
2014,08,27,02,36,17.10
2014,08,27,02,37,17.10
2014,08,27,02,38,17.10
2014,08,27,02,39,17.10
2014,08,27,02,40,17.10
2014,08,27,02,41,17.10
2014,08,27,02,42,17.10
2014,08,27,02,43,17.10
2014,08,27,02,44,17.10
2014,08,27,02,45,17.10
2014,08,27,02,46,17.10
2014,08,27,02,47,17.10
2014,08,27,02,48,17.00
2014,08,27,02,49,17.00
2014,08,27,02,50,17.00
2014,08,27,02,51,17.10
2014,08,27,02,52,17.10
2014,08,27,02,53,17.10
2014,08,27,02,54,17.10
2014,08,27,02,55,17.10
2014,08,27,02,56,17.10
2014,08,27,02,57,17.10
2014,08,27,02,58,17.10
2014,08,27,02,59,17.10
2014,08,27,03,00,17.10
2014,08,27,03,01,17.10
2014,08,27,03,02,17.20
2014,08,27,03,03,17.20
2014,08,27,03,04,17.20
2014,08,27,03,05,17.20
2014,08,27,03,06,17.20
2014,08,27,03,07,17.20
2014,08,27,03,08,17.30
2014,08,27,03,09,17.30
2014,08,27,03,10,17.30
2014,08,27,03,11,17.30
2014,08,27,03,12,17.30
2014,08,27,03,13,17.30
2014,08,27,03,14,17.30
2014,08,27,03,15,17.30
2014,08,27,03,16,17.30
2014,08,27,03,17,17.20
2014,08,27,03,18,17.20
2014,08,27,03,19,17.20
2014,08,27,03,20,17.20
2014,08,27,03,21,17.20
2014,08,27,03,22,17.10
2014,08,27,03,23,17.10
2014,08,27,03,24,17.10
2014,08,27,03,25,17.10
2014,08,27,03,26,17.00
2014,08,27,03,27,17.00
2014,08,27,03,28,16.90
2014,08,27,03,29,16.90
2014,08,27,03,30,16.90
2014,08,27,03,31,16.80
2014,08,27,03,32,16.80
2014,08,27,03,33,16.80
2014,08,27,03,34,16.70
2014,08,27,03,35,16.70
2014,08,27,03,36,16.60
2014,08,27,03,37,16.60
2014,08,27,03,38,16.50
2014,08,27,03,39,16.50
2014,08,27,03,40,16.40
2014,08,27,03,41,16.40
2014,08,27,03,42,16.30
2014,08,27,03,43,16.30
2014,08,27,03,44,16.20
2014,08,27,03,45,16.20
2014,08,27,03,46,16.10
2014,08,27,03,47,16.00
2014,08,27,03,48,15.90
2014,08,27,03,49,15.80
2014,08,27,03,50,15.70
2014,08,27,03,51,15.70
2014,08,27,03,52,15.60
2014,08,27,03,53,15.50
2014,08,27,03,54,15.50
2014,08,27,03,55,15.40
2014,08,27,03,56,15.40
2014,08,27,03,57,15.30
2014,08,27,03,58,15.30
2014,08,27,03,59,15.20
2014,08,27,04,00,15.20
2014,08,27,04,01,15.10
2014,08,27,04,02,15.10
2014,08,27,04,03,15.10
2014,08,27,04,04,15.00
2014,08,27,04,05,15.00
2014,08,27,04,06,15.00
2014,08,27,04,07,15.00
2014,08,27,04,08,14.90
2014,08,27,04,09,14.90
2014,08,27,04,10,14.90
2014,08,27,04,11,14.90
2014,08,27,04,12,14.80
2014,08,27,04,13,14.80
2014,08,27,04,14,14.80
2014,08,27,04,15,14.80
2014,08,27,04,16,14.80
2014,08,27,04,17,14.80
2014,08,27,04,18,14.80
2014,08,27,04,19,14.70
2014,08,27,04,20,14.70
2014,08,27,04,21,14.70
2014,08,27,04,22,14.70
2014,08,27,04,23,14.70
2014,08,27,04,24,14.70
2014,08,27,04,25,14.70
2014,08,27,04,26,14.60
2014,08,27,04,27,14.60
2014,08,27,04,28,14.60
2014,08,27,04,29,14.60
2014,08,27,04,30,14.60
2014,08,27,04,31,14.60
2014,08,27,04,32,14.60
2014,08,27,04,33,14.60
2014,08,27,04,34,14.60
2014,08,27,04,35,14.60
2014,08,27,04,36,14.60
2014,08,27,04,37,14.60
2014,08,27,04,38,14.50
2014,08,27,04,39,14.60
2014,08,27,04,40,14.50
2014,08,27,04,41,14.60
2014,08,27,04,42,14.50
2014,08,27,04,43,14.50
2014,08,27,04,44,14.50
2014,08,27,04,45,14.50
2014,08,27,04,46,14.50
2014,08,27,04,47,14.50
2014,08,27,04,48,14.50
2014,08,27,04,49,14.50
2014,08,27,04,50,14.50
2014,08,27,04,51,14.50
2014,08,27,04,52,14.50
2014,08,27,04,53,14.50
2014,08,27,04,54,14.50
2014,08,27,04,55,14.50
2014,08,27,04,56,14.50
2014,08,27,04,57,14.50
2014,08,27,04,58,14.50
2014,08,27,04,59,14.50
2014,08,27,05,00,14.50
2014,08,27,05,01,14.50
2014,08,27,05,02,14.50
2014,08,27,05,03,14.50
2014,08,27,05,04,14.50
2014,08,27,05,05,14.50
2014,08,27,05,06,14.50
2014,08,27,05,07,14.50
2014,08,27,05,08,14.50
2014,08,27,05,09,14.50
2014,08,27,05,10,14.50
2014,08,27,05,11,14.50
2014,08,27,05,12,14.50
2014,08,27,05,13,14.50
2014,08,27,05,14,14.50
2014,08,27,05,15,14.50
2014,08,27,05,16,14.50
2014,08,27,05,17,14.50
2014,08,27,05,18,14.50
2014,08,27,05,19,14.60
2014,08,27,05,20,14.60
2014,08,27,05,21,14.60
2014,08,27,05,22,14.60
2014,08,27,05,23,14.60
2014,08,27,05,24,14.70
2014,08,27,05,25,14.70
2014,08,27,05,26,14.70
2014,08,27,05,27,14.70
2014,08,27,05,28,14.70
2014,08,27,05,29,14.70
2014,08,27,05,30,14.60
2014,08,27,05,31,14.60
2014,08,27,05,32,14.60
2014,08,27,05,33,14.60
2014,08,27,05,34,14.50
2014,08,27,05,35,14.50
2014,08,27,05,36,14.50
2014,08,27,05,37,14.40
2014,08,27,05,38,14.40
2014,08,27,05,39,14.40
2014,08,27,05,40,14.40
2014,08,27,05,41,14.30
2014,08,27,05,42,14.30
2014,08,27,05,43,14.30
2014,08,27,05,44,14.30
2014,08,27,05,45,14.30
2014,08,27,05,46,14.30
2014,08,27,05,47,14.20
2014,08,27,05,48,14.20
2014,08,27,05,49,14.20
2014,08,27,05,50,14.20
2014,08,27,05,51,14.20
2014,08,27,05,52,14.20
2014,08,27,05,53,14.10
2014,08,27,05,54,14.10
2014,08,27,05,55,14.10
2014,08,27,05,56,14.10
2014,08,27,05,57,14.10
2014,08,27,05,58,14.10
2014,08,27,05,59,14.10
2014,08,27,06,00,14.00
2014,08,27,06,01,14.00
2014,08,27,06,02,14.00
2014,08,27,06,03,14.00
2014,08,27,06,04,14.00
2014,08,27,06,05,14.00
2014,08,27,06,06,14.00
2014,08,27,06,07,14.00
2014,08,27,06,08,14.00
2014,08,27,06,09,14.00
2014,08,27,06,10,14.00
2014,08,27,06,11,14.00
2014,08,27,06,12,14.00
2014,08,27,06,13,14.00
2014,08,27,06,14,14.00
2014,08,27,06,15,14.00
2014,08,27,06,16,14.00
2014,08,27,06,17,14.00
2014,08,27,06,18,14.10
2014,08,27,06,19,14.00
2014,08,27,06,20,14.00
2014,08,27,06,21,14.00
2014,08,27,06,22,14.00
2014,08,27,06,23,14.00
2014,08,27,06,24,14.00
2014,08,27,06,25,14.00
2014,08,27,06,26,14.00
2014,08,27,06,27,14.00
2014,08,27,06,28,14.00
2014,08,27,06,29,14.00
2014,08,27,06,30,14.00
2014,08,27,06,31,13.90
2014,08,27,06,32,13.90
2014,08,27,06,33,13.90
2014,08,27,06,34,13.90
2014,08,27,06,35,14.00
2014,08,27,06,36,14.00
2014,08,27,06,37,14.00
2014,08,27,06,38,14.00
2014,08,27,06,39,14.00
2014,08,27,06,40,14.00
2014,08,27,06,41,14.10
2014,08,27,06,42,14.10
2014,08,27,06,43,14.10
2014,08,27,06,44,14.10
2014,08,27,06,45,14.10
2014,08,27,06,46,14.10
2014,08,27,06,47,14.20
2014,08,27,06,48,14.20
2014,08,27,06,49,14.30
2014,08,27,06,50,14.30
2014,08,27,06,51,14.30
2014,08,27,06,52,14.30
2014,08,27,06,53,14.30
2014,08,27,06,54,14.40
2014,08,27,06,55,14.40
2014,08,27,06,56,14.40
2014,08,27,06,57,14.40
2014,08,27,06,58,14.40
2014,08,27,06,59,14.40
2014,08,27,07,00,14.50
2014,08,27,07,01,14.50
2014,08,27,07,02,14.60
2014,08,27,07,03,14.60
2014,08,27,07,04,14.60
2014,08,27,07,05,14.60
2014,08,27,07,06,14.60
2014,08,27,07,07,14.60
2014,08,27,07,08,14.60
2014,08,27,07,09,14.60
2014,08,27,07,10,14.60
2014,08,27,07,11,14.70
2014,08,27,07,12,14.70
2014,08,27,07,13,14.70
2014,08,27,07,14,14.70
2014,08,27,07,15,14.70
2014,08,27,07,16,14.70
2014,08,27,07,17,14.70
2014,08,27,07,18,14.70
2014,08,27,07,19,14.80
2014,08,27,07,20,14.80
2014,08,27,07,21,14.80
2014,08,27,07,22,14.80
2014,08,27,07,23,14.90
2014,08,27,07,24,14.90
2014,08,27,07,25,15.00
2014,08,27,07,26,15.00
2014,08,27,07,27,15.10
2014,08,27,07,28,15.10
2014,08,27,07,29,15.20
2014,08,27,07,30,15.30
2014,08,27,07,31,15.40
2014,08,27,07,32,15.40
2014,08,27,07,33,15.50
2014,08,27,07,34,15.60
2014,08,27,07,35,15.70
2014,08,27,07,36,15.80
2014,08,27,07,37,15.80
2014,08,27,07,38,15.90
2014,08,27,07,39,16.00
2014,08,27,07,40,16.10
2014,08,27,07,41,16.20
2014,08,27,07,42,16.20
2014,08,27,07,43,16.20
2014,08,27,07,44,16.30
2014,08,27,07,45,16.30
2014,08,27,07,46,16.30
2014,08,27,07,47,16.40
2014,08,27,07,48,16.40
2014,08,27,07,49,16.50
2014,08,27,07,50,16.60
2014,08,27,07,51,16.70
2014,08,27,07,52,16.80
2014,08,27,07,53,16.90
2014,08,27,07,54,17.00
2014,08,27,07,55,17.10
2014,08,27,07,56,17.20
2014,08,27,07,57,17.30
2014,08,27,07,58,17.40
2014,08,27,07,59,17.50
2014,08,27,08,00,17.60
2014,08,27,08,01,17.60
2014,08,27,08,02,17.70
2014,08,27,08,03,17.70
2014,08,27,08,04,17.70
2014,08,27,08,05,17.70
2014,08,27,08,06,17.70
2014,08,27,08,07,17.80
2014,08,27,08,08,17.80
2014,08,27,08,09,17.80
2014,08,27,08,10,17.80
2014,08,27,08,11,17.80
2014,08,27,08,12,17.80
2014,08,27,08,13,17.80
2014,08,27,08,14,17.80
2014,08,27,08,15,17.90
2014,08,27,08,16,17.90
2014,08,27,08,17,17.90
2014,08,27,08,18,17.90
2014,08,27,08,19,18.00
2014,08,27,08,20,18.00
2014,08,27,08,21,18.10
2014,08,27,08,22,18.10
2014,08,27,08,23,18.10
2014,08,27,08,24,18.10
2014,08,27,08,25,18.20
2014,08,27,08,26,18.20
2014,08,27,08,27,18.30
2014,08,27,08,28,18.30
2014,08,27,08,29,18.40
2014,08,27,08,30,18.40
2014,08,27,08,31,18.40
2014,08,27,08,32,18.40
2014,08,27,08,33,18.40
2014,08,27,08,34,18.40
2014,08,27,08,35,18.40
2014,08,27,08,36,18.20
2014,08,27,08,37,18.10
2014,08,27,08,38,18.00
2014,08,27,08,39,17.90
2014,08,27,08,40,17.80
2014,08,27,08,41,17.70
2014,08,27,08,42,17.50
2014,08,27,08,43,17.50
2014,08,27,08,44,17.40
2014,08,27,08,45,17.30
2014,08,27,08,46,17.20
2014,08,27,08,47,17.20
2014,08,27,08,48,17.10
2014,08,27,08,49,17.10
2014,08,27,08,50,17.10
2014,08,27,08,51,17.00
2014,08,27,08,52,17.00
2014,08,27,08,53,17.00
2014,08,27,08,54,16.90
2014,08,27,08,55,16.90
2014,08,27,08,56,16.80
2014,08,27,08,57,16.80
2014,08,27,08,58,16.80
2014,08,27,08,59,16.70
2014,08,27,09,00,16.70
2014,08,27,09,01,16.80
2014,08,27,09,02,16.80
2014,08,27,09,03,16.90
2014,08,27,09,04,16.90
2014,08,27,09,05,16.90
2014,08,27,09,06,16.90
2014,08,27,09,07,17.00
2014,08,27,09,08,17.00
2014,08,27,09,09,17.10
2014,08,27,09,10,17.10
2014,08,27,09,11,17.20
2014,08,27,09,12,17.20
2014,08,27,09,13,17.20
2014,08,27,09,14,17.10
2014,08,27,09,15,17.00
2014,08,27,09,16,16.90
2014,08,27,09,17,16.80
2014,08,27,09,18,16.80
2014,08,27,09,19,16.70
2014,08,27,09,20,16.60
2014,08,27,09,21,16.50
2014,08,27,09,22,16.40
2014,08,27,09,23,16.40
2014,08,27,09,24,16.30
2014,08,27,09,25,16.30
2014,08,27,09,26,16.30
2014,08,27,09,27,16.30
2014,08,27,09,28,16.30
2014,08,27,09,29,16.40
2014,08,27,09,30,16.40
2014,08,27,09,31,16.40
2014,08,27,09,32,16.40
2014,08,27,09,33,16.40
2014,08,27,09,34,16.50
2014,08,27,09,35,16.60
2014,08,27,09,36,16.70
2014,08,27,09,37,16.70
2014,08,27,09,38,16.80
2014,08,27,09,39,16.90
2014,08,27,09,40,17.00
2014,08,27,09,41,17.20
2014,08,27,09,42,17.30
2014,08,27,09,43,17.40
2014,08,27,09,44,17.50
2014,08,27,09,45,17.60
2014,08,27,09,46,17.70
2014,08,27,09,47,17.70
2014,08,27,09,48,17.70
2014,08,27,09,49,17.80
2014,08,27,09,50,17.80
2014,08,27,09,51,17.70
2014,08,27,09,52,17.80
2014,08,27,09,53,17.90
2014,08,27,09,54,18.00
2014,08,27,09,55,18.00
2014,08,27,09,56,18.00
2014,08,27,09,57,18.00
2014,08,27,09,58,18.00
2014,08,27,09,59,17.90
2014,08,27,10,00,18.00
2014,08,27,10,01,18.00
2014,08,27,10,02,18.00
2014,08,27,10,03,18.10
2014,08,27,10,04,18.20
2014,08,27,10,05,18.20
2014,08,27,10,06,18.20
2014,08,27,10,07,18.10
2014,08,27,10,08,18.10
2014,08,27,10,09,18.10
2014,08,27,10,10,18.00
2014,08,27,10,11,18.00
2014,08,27,10,12,18.00
2014,08,27,10,13,18.00
2014,08,27,10,14,17.90
2014,08,27,10,15,17.90
2014,08,27,10,16,17.90
2014,08,27,10,17,17.90
2014,08,27,10,18,17.80
2014,08,27,10,19,17.80
2014,08,27,10,20,17.80
2014,08,27,10,21,17.80
2014,08,27,10,22,17.90
2014,08,27,10,23,17.90
2014,08,27,10,24,17.90
2014,08,27,10,25,17.90
2014,08,27,10,26,17.90
2014,08,27,10,27,17.80
2014,08,27,10,28,17.70
2014,08,27,10,29,17.60
2014,08,27,10,30,17.50
2014,08,27,10,31,17.40
2014,08,27,10,32,17.30
2014,08,27,10,33,17.30
2014,08,27,10,34,17.20
2014,08,27,10,35,17.10
2014,08,27,10,36,16.90
2014,08,27,10,37,16.80
2014,08,27,10,38,16.70
2014,08,27,10,39,16.60
2014,08,27,10,40,16.60
2014,08,27,10,41,16.60
2014,08,27,10,42,16.60
2014,08,27,10,43,16.60
2014,08,27,10,44,16.60
2014,08,27,10,45,16.60
2014,08,27,10,46,16.60
2014,08,27,10,47,16.60
2014,08,27,10,48,16.60
2014,08,27,10,49,16.60
2014,08,27,10,50,16.60
2014,08,27,10,51,16.60
2014,08,27,10,52,16.60
2014,08,27,10,53,16.70
2014,08,27,10,54,16.80
2014,08,27,10,55,16.80
2014,08,27,10,56,16.80
2014,08,27,10,57,16.90
2014,08,27,10,58,17.00
2014,08,27,10,59,17.00
2014,08,27,11,00,17.10
2014,08,27,11,01,17.10
2014,08,27,11,02,17.10
2014,08,27,11,03,17.20
2014,08,27,11,04,17.30
2014,08,27,11,05,17.40
2014,08,27,11,06,17.50
2014,08,27,11,07,17.50
2014,08,27,11,08,17.60
2014,08,27,11,09,17.70
2014,08,27,11,10,17.80
2014,08,27,11,11,17.80
2014,08,27,11,12,17.90
2014,08,27,11,13,18.00
2014,08,27,11,14,18.10
2014,08,27,11,15,18.20
2014,08,27,11,16,18.20
2014,08,27,11,17,18.20
2014,08,27,11,18,18.30
2014,08,27,11,19,18.40
2014,08,27,11,20,18.40
2014,08,27,11,21,18.50
2014,08,27,11,22,18.50
2014,08,27,11,23,18.60
2014,08,27,11,24,18.70
2014,08,27,11,25,18.70
2014,08,27,11,26,18.70
2014,08,27,11,27,18.70
2014,08,27,11,28,18.70
2014,08,27,11,29,18.70
2014,08,27,11,30,18.70
2014,08,27,11,31,18.80
2014,08,27,11,32,18.80
2014,08,27,11,33,18.80
2014,08,27,11,34,18.90
2014,08,27,11,35,19.00
2014,08,27,11,36,19.00
2014,08,27,11,37,19.10
2014,08,27,11,38,19.10
2014,08,27,11,39,19.20
2014,08,27,11,40,19.30
2014,08,27,11,41,19.30
2014,08,27,11,42,19.30
2014,08,27,11,43,19.30
2014,08,27,11,44,19.30
2014,08,27,11,45,19.40
2014,08,27,11,46,19.30
2014,08,27,11,47,19.40
2014,08,27,11,48,19.40
2014,08,27,11,49,19.50
2014,08,27,11,50,19.60
2014,08,27,11,51,19.60
2014,08,27,11,52,19.70
2014,08,27,11,53,19.70
2014,08,27,11,54,19.70
2014,08,27,11,55,19.80
2014,08,27,11,56,19.80
2014,08,27,11,57,19.70
2014,08,27,11,58,19.70
2014,08,27,11,59,19.70
2014,08,27,12,00,19.60
2014,08,27,12,01,19.60
2014,08,27,12,02,19.70
2014,08,27,12,03,19.70
2014,08,27,12,04,19.70
2014,08,27,12,05,19.70
2014,08,27,12,06,19.80
2014,08,27,12,07,19.90
2014,08,27,12,08,20.00
2014,08,27,12,09,20.10
2014,08,27,12,10,20.20
2014,08,27,12,11,20.20
2014,08,27,12,12,20.30
2014,08,27,12,13,20.30
2014,08,27,12,14,20.20
2014,08,27,12,15,20.30
2014,08,27,12,16,20.30
2014,08,27,12,17,20.40
2014,08,27,12,18,20.40
2014,08,27,12,19,20.40
2014,08,27,12,20,20.40
2014,08,27,12,21,20.40
2014,08,27,12,22,20.50
2014,08,27,12,23,20.70
2014,08,27,12,24,20.80
2014,08,27,12,25,20.80
2014,08,27,12,26,20.70
2014,08,27,12,27,20.60
2014,08,27,12,28,20.60
2014,08,27,12,29,20.50
2014,08,27,12,30,20.40
2014,08,27,12,31,20.40
2014,08,27,12,32,20.40
2014,08,27,12,33,20.30
2014,08,27,12,34,20.20
2014,08,27,12,35,20.10
2014,08,27,12,36,20.00
2014,08,27,12,37,20.00
2014,08,27,12,38,19.90
2014,08,27,12,39,19.90
2014,08,27,12,40,20.00
2014,08,27,12,41,20.10
2014,08,27,12,42,20.20
2014,08,27,12,43,20.30
2014,08,27,12,44,20.30
2014,08,27,12,45,20.40
2014,08,27,12,46,20.30
2014,08,27,12,47,20.30
2014,08,27,12,48,20.40
2014,08,27,12,49,20.30
2014,08,27,12,50,20.30
2014,08,27,12,51,20.20
2014,08,27,12,52,20.30
2014,08,27,12,53,20.30
2014,08,27,12,54,20.30
2014,08,27,12,55,20.20
2014,08,27,12,56,20.20
2014,08,27,12,57,20.20
2014,08,27,12,58,20.30
2014,08,27,12,59,20.40
2014,08,27,13,00,20.40
2014,08,27,13,01,20.40
2014,08,27,13,02,20.40
2014,08,27,13,03,20.30
2014,08,27,13,04,20.30
2014,08,27,13,05,20.30
2014,08,27,13,06,20.20
2014,08,27,13,07,20.20
2014,08,27,13,08,20.30
2014,08,27,13,09,20.30
2014,08,27,13,10,20.40
2014,08,27,13,11,20.40
2014,08,27,13,12,20.50
2014,08,27,13,13,20.60
2014,08,27,13,14,20.60
2014,08,27,13,15,20.70
2014,08,27,13,16,20.70
2014,08,27,13,17,20.60
2014,08,27,13,18,20.50
2014,08,27,13,19,20.50
2014,08,27,13,20,20.50
2014,08,27,13,21,20.50
2014,08,27,13,22,20.50
2014,08,27,13,23,20.50
2014,08,27,13,24,20.50
2014,08,27,13,25,20.50
2014,08,27,13,26,20.60
2014,08,27,13,27,20.70
2014,08,27,13,28,20.80
2014,08,27,13,29,20.90
2014,08,27,13,30,20.90
2014,08,27,13,31,20.90
2014,08,27,13,32,20.90
2014,08,27,13,33,20.90
2014,08,27,13,34,20.90
2014,08,27,13,35,21.00
2014,08,27,13,36,21.00
2014,08,27,13,37,21.00
2014,08,27,13,38,21.00
2014,08,27,13,39,20.90
2014,08,27,13,40,21.00
2014,08,27,13,41,21.00
2014,08,27,13,42,20.90
2014,08,27,13,43,20.90
2014,08,27,13,44,20.90
2014,08,27,13,45,20.80
2014,08,27,13,46,20.80
2014,08,27,13,47,20.60
2014,08,27,13,48,20.50
2014,08,27,13,49,20.50
2014,08,27,13,50,20.50
2014,08,27,13,51,20.50
2014,08,27,13,52,20.50
2014,08,27,13,53,20.60
2014,08,27,13,54,20.60
2014,08,27,13,55,20.60
2014,08,27,13,56,20.50
2014,08,27,13,57,20.40
2014,08,27,13,58,20.20
2014,08,27,13,59,20.00
2014,08,27,14,00,19.90
2014,08,27,14,01,19.80
2014,08,27,14,02,19.70
2014,08,27,14,03,19.70
2014,08,27,14,04,19.60
2014,08,27,14,05,19.60
2014,08,27,14,06,19.60
2014,08,27,14,07,19.70
2014,08,27,14,08,19.80
2014,08,27,14,09,19.80
2014,08,27,14,10,19.70
2014,08,27,14,11,19.70
2014,08,27,14,12,19.70
2014,08,27,14,13,19.60
2014,08,27,14,14,19.40
2014,08,27,14,15,19.40
2014,08,27,14,16,19.30
2014,08,27,14,17,19.30
2014,08,27,14,18,19.30
2014,08,27,14,19,19.40
2014,08,27,14,20,19.30
2014,08,27,14,21,19.20
2014,08,27,14,22,19.10
2014,08,27,14,23,19.10
2014,08,27,14,24,19.00
2014,08,27,14,25,18.90
2014,08,27,14,26,18.90
2014,08,27,14,27,18.90
2014,08,27,14,28,18.90
2014,08,27,14,29,18.80
2014,08,27,14,30,18.80
2014,08,27,14,31,18.70
2014,08,27,14,32,18.50
2014,08,27,14,33,18.50
2014,08,27,14,34,18.40
2014,08,27,14,35,18.20
2014,08,27,14,36,18.10
2014,08,27,14,37,18.00
2014,08,27,14,38,17.90
2014,08,27,14,39,17.90
2014,08,27,14,40,17.80
2014,08,27,14,41,17.70
2014,08,27,14,42,17.60
2014,08,27,14,43,17.50
2014,08,27,14,44,17.40
2014,08,27,14,45,17.40
2014,08,27,14,46,17.40
2014,08,27,14,47,17.30
2014,08,27,14,48,17.20
2014,08,27,14,49,17.30
2014,08,27,14,50,17.30
2014,08,27,14,51,17.30
2014,08,27,14,52,17.30
2014,08,27,14,53,17.30
2014,08,27,14,54,17.20
2014,08,27,14,55,17.10
2014,08,27,14,56,17.00
2014,08,27,14,57,16.90
2014,08,27,14,58,16.80
2014,08,27,14,59,16.60
2014,08,27,15,00,16.50
2014,08,27,15,01,16.50
2014,08,27,15,02,16.40
2014,08,27,15,03,16.40
2014,08,27,15,04,16.30
2014,08,27,15,05,16.10
2014,08,27,15,06,15.90
2014,08,27,15,07,15.70
2014,08,27,15,08,15.60
2014,08,27,15,09,15.40
2014,08,27,15,10,15.20
2014,08,27,15,11,15.00
2014,08,27,15,12,14.80
2014,08,27,15,13,14.80
2014,08,27,15,14,14.80
2014,08,27,15,15,14.80
2014,08,27,15,16,14.90
2014,08,27,15,17,15.00
2014,08,27,15,18,15.10
2014,08,27,15,19,15.20
2014,08,27,15,20,15.20
2014,08,27,15,21,15.30
2014,08,27,15,22,15.30
2014,08,27,15,23,15.40
2014,08,27,15,24,15.30
2014,08,27,15,25,15.10
2014,08,27,15,26,15.00
2014,08,27,15,27,15.00
2014,08,27,15,28,15.00
2014,08,27,15,29,14.90
2014,08,27,15,30,14.70
2014,08,27,15,31,14.60
2014,08,27,15,32,14.50
2014,08,27,15,33,14.40
2014,08,27,15,34,14.30
2014,08,27,15,35,14.30
2014,08,27,15,36,14.30
2014,08,27,15,37,14.30
2014,08,27,15,38,14.30
2014,08,27,15,39,14.20
2014,08,27,15,40,14.10
2014,08,27,15,41,14.10
2014,08,27,15,42,14.10
2014,08,27,15,43,14.20
2014,08,27,15,44,14.30
2014,08,27,15,45,14.30
2014,08,27,15,46,14.40
2014,08,27,15,47,14.50
2014,08,27,15,48,14.50
2014,08,27,15,49,14.60
2014,08,27,15,50,14.70
2014,08,27,15,51,14.80
2014,08,27,15,52,14.90
2014,08,27,15,53,15.00
2014,08,27,15,54,15.10
2014,08,27,15,55,15.20
2014,08,27,15,56,15.30
2014,08,27,15,57,15.20
2014,08,27,15,58,15.10
2014,08,27,15,59,15.00
2014,08,27,16,00,14.90
2014,08,27,16,01,14.80
2014,08,27,16,02,14.80
2014,08,27,16,03,14.90
2014,08,27,16,04,14.90
2014,08,27,16,05,15.00
2014,08,27,16,06,15.10
2014,08,27,16,07,15.10
2014,08,27,16,08,15.20
2014,08,27,16,09,15.10
2014,08,27,16,10,15.10
2014,08,27,16,11,15.10
2014,08,27,16,12,15.00
2014,08,27,16,13,15.10
2014,08,27,16,14,15.20
2014,08,27,16,15,15.20
2014,08,27,16,16,15.20
2014,08,27,16,17,15.20
2014,08,27,16,18,15.20
2014,08,27,16,19,15.10
2014,08,27,16,20,15.10
2014,08,27,16,21,15.20
2014,08,27,16,22,15.30
2014,08,27,16,23,15.30
2014,08,27,16,24,15.30
2014,08,27,16,25,15.30
2014,08,27,16,26,15.30
2014,08,27,16,27,15.30
2014,08,27,16,28,15.40
2014,08,27,16,29,15.40
2014,08,27,16,30,15.50
2014,08,27,16,31,15.60
2014,08,27,16,32,15.70
2014,08,27,16,33,15.80
2014,08,27,16,34,15.90
2014,08,27,16,35,16.00
2014,08,27,16,36,16.20
2014,08,27,16,37,16.30
2014,08,27,16,38,16.30
2014,08,27,16,39,16.40
2014,08,27,16,40,16.40
2014,08,27,16,41,16.50
2014,08,27,16,42,16.50
2014,08,27,16,43,16.60
2014,08,27,16,44,16.60
2014,08,27,16,45,16.70
2014,08,27,16,46,16.80
2014,08,27,16,47,16.80
2014,08,27,16,48,16.90
2014,08,27,16,49,17.00
2014,08,27,16,50,17.00
2014,08,27,16,51,17.10
2014,08,27,16,52,17.20
2014,08,27,16,53,17.30
2014,08,27,16,54,17.40
2014,08,27,16,55,17.50
2014,08,27,16,56,17.70
2014,08,27,16,57,17.90
2014,08,27,16,58,18.00
2014,08,27,16,59,18.20
2014,08,27,17,00,18.30
2014,08,27,17,01,18.50
2014,08,27,17,02,18.60
2014,08,27,17,03,18.70
2014,08,27,17,04,18.80
2014,08,27,17,05,18.80
2014,08,27,17,06,18.80
2014,08,27,17,07,18.90
2014,08,27,17,08,18.90
2014,08,27,17,09,18.90
2014,08,27,17,10,19.00
2014,08,27,17,11,19.00
2014,08,27,17,12,19.10
2014,08,27,17,13,19.10
2014,08,27,17,14,19.20
2014,08,27,17,15,19.30
2014,08,27,17,16,19.40
2014,08,27,17,17,19.50
2014,08,27,17,18,19.60
2014,08,27,17,19,19.70